Weather History for Lakehurst NAS, NJ

Change the Weather History Date:

Sunday, March 24, 2013

  Actual Average Record
Temperature  
Mean Temperature 44 °F -  
Max Temperature 39 °F 53 °F 69 °F (1999)
Min Temperature 30 °F 36 °F 18 °F (2014)
Degree Days  
Heating Degree Days 22    
Moisture  
Dew Point 20 °F    
Average Humidity 40    
Maximum Humidity 62    
Minimum Humidity 20    
Precipitation  
Precipitation 0.00 in - - ()
Sea Level Pressure  
Sea Level Pressure 29.85 in    
Wind  
Wind Speed 6 mph (WNW)    
Max Wind Speed 12 mph    
Max Gust Speed 20 mph    
Averages and records for this station are not official NWS values.
T = Trace of Precipitation, MM = Missing Value Source: NWS Daily Summary

Daily Weather History Graph

Daily Weather History Graph

Search for Another Location

Airport:

Trip Planner

Search our weather history database for the weather conditions in past years. The results will help you decide how hot, cold, wet, or windy it might be!

Date:

Astronomy

Mar. 24, 2013 Rise Set
Actual Time 6:53 AM EDT 7:13 PM EDT
Civil Twilight 6:26 AM EDT 7:40 PM EDT
Nautical Twilight 5:55 AM EDT 8:12 PM EDT
Astronomical Twilight 5:22 AM EDT 8:45 PM EDT
Moon 4:39 PM EDT (3/24) 5:02 AM EDT (3/24)
Length of Visible Light 13h 14m
Length of Day
12h 19m
Waxing Gibbous, 91% of the Moon is Illuminated
Mar 24
Waxing Gibbous
Mar 27
Full
Apr 3
Last Quarter
Apr 10
New
Apr 18
First Quarter

Hourly Weather History & Observations

Time (EDT) Temp. Windchill Dew Point Humidity Pressure Visibility Wind Dir Wind Speed Gust Speed Precip Events Conditions
12:00 AM 42.1 °F 38.4 °F 17.1 °F 37% 29.94 in - NW 5.8 mph - N/A   Clear
1:00 AM 44.1 °F 42.5 °F 17.1 °F 34% 29.94 in - NNW 3.5 mph - N/A   Clear
2:00 AM 35.1 °F 32.2 °F 17.1 °F 48% 29.94 in - NNW 3.5 mph - N/A   Clear
3:00 AM 33.1 °F 27.7 °F 18.0 °F 54% 29.94 in - WNW 5.8 mph - N/A   Clear
4:00 AM 34.0 °F 29.8 °F 18.0 °F 52% 29.93 in - WNW 4.6 mph - N/A   Clear
5:00 AM 34.0 °F 29.8 °F 18.0 °F 52% 29.94 in - WNW 4.6 mph - N/A   Clear
6:00 AM 30.0 °F 26.5 °F 18.0 °F 61% 29.96 in - West 3.5 mph - N/A   Clear
7:00 AM 34.0 °F 29.8 °F 18.0 °F 52% 29.94 in - NW 4.6 mph - N/A   Clear
8:00 AM 41.0 °F 38.0 °F 21.0 °F 45% 29.95 in - West 4.6 mph - N/A   Clear
9:00 AM 46.9 °F - 19.0 °F 33% 29.96 in - WNW 11.5 mph 17.3 mph N/A   Clear
10:00 AM 46.9 °F - 16.0 °F 29% 29.93 in - NW 11.5 mph 17.3 mph N/A   Clear
11:00 AM 46.9 °F - 15.1 °F 28% 29.89 in - NNW 8.1 mph 16.1 mph N/A   Clear
12:00 PM 51.1 °F - 17.1 °F 26% 29.85 in - NNW 11.5 mph 19.6 mph N/A   Clear
1:00 PM 55.9 °F - 17.1 °F 22% 29.85 in - WNW 4.6 mph - N/A   Clear
3:00 PM 57.9 °F - 17.1 °F 20% 29.75 in - Calm Calm - N/A   Clear
4:00 PM 57.0 °F - 21.9 °F 26% 29.72 in - SE 9.2 mph - N/A   Clear
5:00 PM 53.1 °F - 23.0 °F 31% 29.72 in - SE 10.4 mph - N/A   Clear
6:00 PM 51.1 °F - 23.0 °F 33% 29.71 in - ESE 8.1 mph - N/A   Clear
7:00 PM 50.0 °F - 24.1 °F 36% 29.73 in - SSE 6.9 mph - N/A   Clear
8:00 PM 48.9 °F - 26.1 °F 41% 29.75 in - South 6.9 mph - N/A   Clear
9:00 PM 48.0 °F - 26.1 °F 42% 29.76 in - SSE 3.5 mph - N/A   Clear
10:00 PM 41.0 °F - 26.1 °F 55% 29.75 in - Calm Calm - N/A   Partly Cloudy
11:00 PM 39.0 °F - 27.0 °F 62% 29.72 in - Calm Calm - N/A   Overcast